Weather History for Cape Girardeau, MO

Change the Weather History Date:

Monday, April 22, 2013

  Actual Average Record
Temperature  
Mean Temperature 56 °F 59 °F  
Max Temperature 72 °F 71 °F 90 °F (1963)
Min Temperature 40 °F 48 °F 31 °F (2000)
Degree Days  
Heating Degree Days 9 7  
Month to date heating degree days 224 219  
Since 1 July heating degree days 4185 4275  
Cooling Degree Days 0 1  
Month to date cooling degree days 24 16  
Year to date cooling degree days 24 20  
Growing Degree Days 6 (Base 50)    
Moisture  
Dew Point 44 °F    
Average Humidity 64    
Maximum Humidity 86    
Minimum Humidity 41    
Precipitation  
Precipitation 0.00 in 0.16 in 2.20 in (1973)
Month to date precipitation 2.90 3.07  
Year to date precipitation 12.07 14.35  
Sea Level Pressure  
Sea Level Pressure 30.15 in    
Wind  
Wind Speed 6 mph (SSE)    
Max Wind Speed 16 mph    
Max Gust Speed 21 mph    
Visibility 10 miles    
Events      
T = Trace of Precipitation, MM = Missing Value Source: NWS Daily Summary

Daily Weather History Graph

Daily Weather History Graph

Search for Another Location

Airport:

Trip Planner

Search our weather history database for the weather conditions in past years. The results will help you decide how hot, cold, wet, or windy it might be!

Date:

Astronomy

Apr. 22, 2013 Rise Set
Actual Time 6:14 AM CDT 7:39 PM CDT
Civil Twilight 5:46 AM CDT 8:07 PM CDT
Nautical Twilight 5:14 AM CDT 8:40 PM CDT
Astronomical Twilight 4:39 AM CDT 9:14 PM CDT
Moon 4:32 PM CDT (4/22) 4:04 AM CDT (4/22)
Length of Visible Light 14h 20m
Length of Day
13h 25m
Waxing Gibbous, 88% of the Moon is Illuminated
Apr 22
Waxing Gibbous
Apr 25
Full
May 2
Last Quarter
May 9
New
May 17
First Quarter

Hourly Weather History & Observations

Time (CDT) Temp. Windchill Dew Point Humidity Pressure Visibility Wind Dir Wind Speed Gust Speed Precip Events Conditions
12:53 AM 46.9 °F - 39.9 °F 77% 30.27 in 10.0 mi Calm Calm - N/A   Clear
1:53 AM 44.1 °F 42.5 °F 39.0 °F 82% 30.25 in 10.0 mi ENE 3.5 mph - N/A   Clear
2:53 AM 44.1 °F - 39.9 °F 85% 30.24 in 10.0 mi Calm Calm - N/A   Clear
3:53 AM 41.0 °F - 37.0 °F 86% 30.23 in 10.0 mi Calm Calm - N/A   Clear
4:53 AM 41.0 °F - 37.0 °F 86% 30.22 in 10.0 mi Calm Calm - N/A   Clear
5:53 AM 41.0 °F - 35.1 °F 79% 30.22 in 10.0 mi Calm Calm - N/A   Clear
6:53 AM 45.0 °F 42.6 °F 37.0 °F 74% 30.22 in 10.0 mi East 4.6 mph - N/A   Clear
7:53 AM 52.0 °F - 39.0 °F 61% 30.22 in 10.0 mi Calm Calm - N/A   Clear
8:53 AM 57.0 °F - 43.0 °F 59% 30.22 in 10.0 mi SE 6.9 mph - N/A   Clear
9:53 AM 59.0 °F - 44.1 °F 58% 30.22 in 10.0 mi SE 4.6 mph - N/A   Clear
10:53 AM 62.6 °F - 48.2 °F 59% 30.21 in 10.0 mi SE 5.8 mph - N/A   Clear
11:53 AM 66.0 °F - 48.9 °F 54% 30.19 in 10.0 mi South 5.8 mph - N/A   Clear
12:53 PM 69.1 °F - 50.0 °F 51% 30.17 in 10.0 mi SSE 9.2 mph - N/A   Clear
1:53 PM 69.1 °F - 50.0 °F 51% 30.14 in 10.0 mi SSE 10.4 mph - N/A   Partly Cloudy
2:53 PM 70.0 °F - 46.0 °F 42% 30.11 in 10.0 mi South 8.1 mph - N/A   Partly Cloudy
3:53 PM 70.0 °F - 46.9 °F 44% 30.08 in 10.0 mi SSE 12.7 mph - N/A   Clear
4:53 PM 71.1 °F - 46.9 °F 42% 30.06 in 10.0 mi South 15.0 mph 20.7 mph N/A   Clear
5:53 PM 70.0 °F - 46.9 °F 44% 30.05 in 10.0 mi South 11.5 mph - N/A   Partly Cloudy
6:53 PM 66.9 °F - 46.9 °F 49% 30.04 in 10.0 mi South 8.1 mph - N/A   Clear
7:53 PM 61.0 °F - 48.0 °F 62% 30.03 in 10.0 mi Calm Calm - N/A   Clear
9:53 PM 59.0 °F - 50.0 °F 72% 30.05 in 10.0 mi South 4.6 mph - N/A   Clear
10:53 PM 62.1 °F - 48.0 °F 60% 30.04 in 10.0 mi SE 6.9 mph - N/A   Mostly Cloudy
11:53 PM 63.0 °F - 46.0 °F 54% 30.05 in 10.0 mi South 8.1 mph - N/A   Clear